F1DKL-13 Weather Reports


time (UTC)temp
C
wind
direction
speed
KPH
gust
KPH
rain 1hr
cm
rain 24hr
cm
rain mn
cm
humidity
%
barometer
mb
20260505082004 11 0 0.0 0.0 0.00 5.59 2.51 98 1018.3
20260505081504 11 0 0.0 0.0 0.00 5.59 2.51 98 1018.3
20260505081004 11 0 0.0 0.0 0.00 5.59 2.51 98 1018.3
20260505080504 11 0 0.0 0.0 0.00 5.59 2.51 98 1018.3
20260505080004 11 0 0.0 0.0 0.00 5.59 2.51 98 1018.3
20260505075504 11 0 0.0 0.0 0.00 5.66 2.51 98 1018.3
20260505075004 11 0 0.0 0.0 0.00 5.66 2.51 98 1018.3
20260505074504 11 0 0.0 0.0 0.00 5.66 2.51 98 1018.3
20260505074004 11 0 0.0 0.0 0.00 5.66 2.51 98 1018.3
20260505073504 11 0 0.0 0.0 0.00 5.79 2.51 98 1018.3
20260505073004 11 0 0.0 0.0 0.00 5.79 2.51 98 1018.3
20260505072504 11 0 0.0 0.0 0.00 5.79 2.51 98 1018.3
20260505072004 11 0 0.0 0.0 0.00 5.79 2.51 98 1018.3
20260505071504 10 0 0.0 0.0 0.00 5.79 2.51 98 1018.3
20260505071004 10 0 0.0 0.0 0.00 5.79 2.51 98 1018.3
20260505070504 10 0 0.0 0.0 0.00 5.89 2.51 98 1018.3
20260505070005 10 0 0.0 0.0 0.00 5.99 2.51 98 1018.3
20260505065504 10 0 0.0 0.0 0.00 5.99 2.51 98 1018.3
20260505003504 9 0 0.0 0.0 0.30 5.16 1.04 98 1018.3
20260505003004 9 0 0.0 0.0 0.41 5.16 1.04 98 1018.3
20260505002504 9 0 0.0 0.0 0.41 5.16 1.04 98 1018.3
20260505002004 9 0 0.0 0.0 0.43 5.05 0.94 98 1018.3
20260505001504 9 0 0.0 0.0 0.43 5.05 0.94 98 1018.3
20260505001004 9 0 0.0 0.0 0.43 5.05 0.94 98 1018.3
20260505000504 9 0 0.0 0.0 0.43 5.05 0.94 98 1018.3
20260505000004 9 0 0.0 0.0 0.33 4.95 0.84 98 1018.3
20260504235504 9 0 0.0 0.0 0.43 4.95 0.84 98 1018.3
20260504235004 9 0 0.0 0.0 0.43 4.95 0.84 98 1018.3
20260504234504 9 0 0.0 0.0 0.33 4.85 0.74 98 1018.3
20260504234004 9 0 0.0 0.0 0.33 4.85 0.74 98 1019.3
20260504233504 9 0 0.0 0.0 0.43 4.85 0.74 98 1019.3
20260504233004 9 0 0.0 0.0 0.33 4.75 0.64 98 1019.3
20260504232504 9 0 0.0 0.0 0.33 4.75 0.64 98 1019.3
20260504232004 9 0 0.0 0.0 0.30 4.62 0.51 98 1019.3
20260504231504 9 0 0.0 0.0 0.41 4.62 0.51 98 1019.3
20260504231004 9 0 0.0 0.0 0.41 4.62 0.51 98 1019.3
20260504230504 9 0 0.0 0.0 0.51 4.62 0.51 98 1019.3
20260504230004 9 0 0.0 0.0 0.51 4.62 0.51 98 1019.3
20260504225504 9 0 0.0 0.0 0.51 4.52 0.41 98 1019.3
20260504225004 9 0 0.0 0.0 0.51 4.52 0.41 98 1019.3
20260504224504 9 0 0.0 0.0 0.64 4.52 0.41 98 1019.3
20260504224004 9 0 0.0 0.0 0.64 4.52 0.41 98 1019.3
20260504223504 9 0 0.0 0.0 0.53 4.42 0.30 98 1019.3
20260504223004 9 0 0.0 0.0 0.64 4.42 0.30 98 1019.3
20260504222504 9 0 0.0 0.0 0.64 4.42 0.30 98 1019.3
20260504222004 9 0 0.0 0.0 0.53 4.32 0.20 98 1019.3
20260504221504 9 0 0.0 0.0 0.43 4.22 0.10 98 1019.3
20260504221004 10 0 0.0 0.0 0.53 4.22 0.10 98 1019.3
20260504220504 9 0 0.0 0.0 0.43 4.11 0.00 98 1019.3
20260504220004 10 0 0.0 0.0 0.43 4.11 0.00 98 1019.3
20260504215504 10 0 0.0 0.0 0.43 4.01 4.01 98 1019.3
20260504215004 10 0 0.0 0.0 0.53 4.01 4.01 98 1019.3
20260504214504 10 0 0.0 0.0 0.51 3.89 3.89 98 1019.3
20260504214004 10 0 0.0 0.0 0.51 3.89 3.89 98 1020.4
20260504213504 10 0 0.0 0.0 0.51 3.89 3.89 98 1020.4
20260504213004 10 0 0.0 0.0 0.41 3.78 3.78 98 1020.4
20260504212504 10 0 0.0 0.0 0.53 3.78 3.78 98 1020.4
20260504212004 10 0 0.0 0.0 0.53 3.78 3.78 98 1020.4
20260504211504 10 0 0.0 0.0 0.53 3.78 3.78 98 1020.4
20260504211004 10 0 0.0 0.0 0.43 3.68 3.68 98 1020.4
20260504210504 10 0 0.0 0.0 0.43 3.68 3.68 98 1020.4
20260504210004 10 0 0.0 0.0 0.43 3.68 3.68 98 1020.4
20260504205504 10 0 0.0 0.0 0.33 3.58 3.58 98 1020.4
20260504205004 10 0 0.0 0.0 0.23 3.48 3.48 98 1020.4
20260504204504 10 0 0.0 0.0 0.13 3.38 3.38 98 1020.4
20260504204004 10 0 0.0 0.0 0.13 3.38 3.38 98 1020.4
20260504203504 10 0 0.0 0.0 0.13 3.38 3.38 98 1020.4
20260504203004 10 0 0.0 0.0 0.13 3.38 3.38 98 1020.4
20260504202504 10 0 0.0 0.0 0.00 3.25 3.25 98 1020.4
20260504202004 10 0 0.0 0.0 0.00 3.25 3.25 98 1020.4
20260504201504 10 0 0.0 0.0 0.00 3.25 3.25 98 1020.4
20260504201004 10 0 0.0 0.0 0.00 3.25 3.25 98 1020.4
20260504200504 10 0 0.0 0.0 0.00 3.25 3.25 98 1020.4
20260504200004 10 0 0.0 0.0 0.00 3.25 3.25 98 1020.4
20260504195504 10 0 0.0 0.0 0.00 3.25 3.25 98 1020.4
20260504195004 10 0 0.0 0.0 0.00 3.25 3.25 98 1020.4
20260504194504 10 0 0.0 0.0 0.00 3.25 3.25 98 1020.4
20260504194004 10 0 0.0 0.0 0.00 3.25 3.25 98 1020.4
20260504193504 10 0 0.0 0.0 0.00 3.25 3.25 98 1020.4
20260504193004 10 0 0.0 0.0 0.08 3.25 3.25 98 1020.4
20260504192504 11 0 0.0 0.0 0.08 3.25 3.25 98 1020.4
20260504192004 11 0 0.0 0.0 0.08 3.25 3.25 98 1020.4
20260504191504 11 0 0.0 0.0 0.08 3.25 3.25 98 1020.4
20260504191004 11 0 0.0 0.0 0.08 3.25 3.25 98 1020.4
20260504190504 11 0 0.0 0.0 0.08 3.25 3.25 98 1020.4
20260504190004 11 0 0.0 0.0 0.08 3.25 3.25 98 1020.4
20260504185504 11 0 0.0 0.0 0.08 3.25 3.25 98 1020.4
20260504185004 11 0 0.0 0.0 0.08 3.25 3.25 98 1020.4
20260504184504 11 0 0.0 0.0 0.08 3.25 3.25 98 1020.4
20260504184004 11 0 0.0 0.0 0.20 3.25 3.25 98 1020.4
20260504183504 11 0 0.0 0.0 0.20 3.25 3.25 98 1020.4
20260504183004 11 0 0.0 0.0 0.23 3.17 3.17 98 1020.4
20260504182504 11 0 0.0 0.0 0.23 3.17 3.17 98 1020.4
20260504182005 11 0 0.0 0.0 0.23 3.17 3.17 98 1020.4
20260504181504 11 0 0.0 0.0 0.23 3.17 3.17 98 1020.4
20260504181004 11 0 0.0 0.0 0.23 3.17 3.17 98 1021.5
20260504180504 11 0 0.0 0.0 0.23 3.17 3.17 98 1021.5
20260504180004 11 0 0.0 0.0 0.33 3.17 3.17 98 1021.5
20260504175504 11 0 0.0 0.0 0.33 3.17 3.17 98 1020.4
20260504175004 11 0 0.0 0.0 0.33 3.17 3.17 98 1020.4
20260504174504 11 0 0.0 0.0 0.43 3.17 3.17 98 1020.4
20260504174004 11 0 0.0 0.0 0.30 3.05 3.05 98 1020.4
20260504173504 11 0 0.0 0.0 0.30 3.05 3.05 98 1020.4
20260504173004 11 0 0.0 0.0 0.20 2.95 2.95 98 1020.4
20260504172504 11 0 0.0 0.0 0.20 2.95 2.95 98 1019.3
20260504172004 11 0 0.0 0.0 0.20 2.95 2.95 98 1019.3
20260504171504 12 0 0.0 0.0 0.20 2.95 2.95 98 1019.3
20260504171004 12 0 0.0 0.0 0.20 2.95 2.95 98 1019.3
20260504170504 12 0 0.0 0.0 0.20 2.95 2.95 98 1019.3
20260504151004 11 0 0.0 0.0 0.00 2.74 2.74 98 1021.5
20260504150504 11 0 0.0 0.0 0.00 2.74 2.74 98 1021.5
20260504141004 12 0 0.0 0.0 0.64 2.74 2.74 98 1021.5
20260504140504 12 0 0.0 0.0 0.64 2.74 2.74 98 1021.5
20260504130504 11 0 0.0 0.0 0.20 2.11 2.11 98 1022.6
20260504110504 11 0 0.0 0.0 0.13 1.80 1.80 97 1022.6
20260504100504 10 0 0.0 0.0 0.30 1.68 1.68 80 1022.6